STARLINK-30501, 57917

Orbit data source: Space-Track

STARLINK-30501, 57917 is a payload satellite owned by SpaceX/Seattle (US) in LEO that was launched on Sun, 24 Sep 2023 UTC via an FALCON 9 launch vehicle from the Air Force Eastern Test Range (AFETR). Payload-class satellites include a variety of spacecraft equipped with specific instruments for various scientific and technological missions. These include communications satellites like Starlink; space stations such as the ISS; scientific satellites like the Hubble; Earth observation satellites from companies like Planet Labs, Umbra, and HawkEye 360; GPS; miniature CubeSats for education and research; and military/defense satellites.

Loading next visibility...
Identifier
57917, 2023-147E
Orbit
LEO
Country
Flag of USUS
Related business
Manufacturer
SpaceX/Seattle
Mission
Operational Commercial Communications
Bus & Motor
STARLINK V2M, Unknown motor
Mass
730 kg wet, ~700 kg dry
Launch date (UTC)
2023-09-24 (3 years ago)
Launch vehicle
FALCON 9
Launch site
Air Force Eastern Test Range (AFETR)
Object type
Payload
Rocket body
Debris
Shape & HBR
Box + 2 Pan, 17.7 m
Radar Cross Section
33.884 m², Large (>1 m²)

Expand to show TLE details & history
Last TLE update: 2 days ago

TLE from 2 days ago
0 STARLINK-30501
1 57917U 23147E   26171.24111262  .00015718  00000-0  57943-3 0  9995
2 57917  42.9988 105.9042 0000853 269.5806  90.4948 15.27582450152308
Epoch: 2026-06-20T05:47Z
TLE epoch observation values (Epoch: 2026-06-20T05:47:12.130Z)
Latitude
-0°
Longitude
110.64509°
Altitude
482.822 km
Speed
7.626 km/s
True Right ascension
07h 03m 37s
True Declination
0° 00' 00"
Sunlit
Object was in daylight at epoch
Visualization orbit readout
Latitude
Unknown
Longitude
Unknown
Altitude
Unknown
Speed
Unknown
Apparent Right ascension
Unknown
Apparent Declination
Unknown
Sunlit
N/A
Visualization observer readout
Local Sidereal Time
21:30:38
Azimuth
Unknown
Elevation
Unknown
Doppler factor
Unknown
Orbital elements
Apogee altitude
485.573 km
Perigee altitude
484.402 km
Semi-major axis
6,863.124 km
Eccentricity
0.00009
Inclination
42.9988°
RAAN
105.9042°
Arg. of periapsis
269.5806°
True anomaly
90.50457°
Mean anomaly
90.4948°
Eccentric anomaly
90.49969°
Mean motion
3.81734 °/min
Orbital period
94.31 mins
BSTAR
0.00057943
Loading maneuver chart data...
Computing Atmospheric mass density...

Documentation

Showing up to 5 results
|